[[{"header":{"parameterUnit":"m.s-1","parameterCategory":1,"la1":30.2991,"la2":30.254,"lo1":-89.0895,"lo2":-89.0444,"dy":0.0017,"dx":0.0017,"nx":28,"ny":28,"refTime":"2024-08-13T03:00:00:Z","depth":0,"parameterNumber":2,"parameterNumberName":"U-component_of_WINDS"},"data":[0,0,0,0,0,0,0,0,0,0,0,0,0,0,0,0,0,0,0,0,0,0,0,0,0,0,0,0,0,0,0,0,0,0,0,0,0,0,0,0,0,0,0,0,0,0,0,0,0,0,0,0,0,0,0,0,0,0,1.9305,1.9306,0,1.9356,1.9356,1.9357,1.937,1.937,1.937,1.9369,1.9428,1.943,1.9432,0,0,0,0,0,0,0,0,0,0,0,0,0,1.9228,1.9229,1.9305,1.9306,1.9307,1.9356,1.9356,1.9357,1.937,1.937,1.937,1.9369,1.9428,1.943,1.9432,0,0,0,0,0,0,0,0,0,0,0,0,0,1.9268,1.9229,1.9305,1.9319,1.9321,1.9356,1.9357,1.9357,1.9371,1.937,1.937,1.9369,1.9427,1.943,1.9432,1.9459,0,0,1.9441,1.9442,0,0,0,0,0,0,0,0,1.9266,1.9271,1.9316,1.9318,1.932,1.9356,1.9351,1.9392,1.9371,1.9352,1.9369,1.9369,1.9405,1.941,1.942,1.9462,1.9465,1.9441,1.9443,1.9444,1.9445,0,0,0,0,0,0,0,1.9263,1.9269,1.9326,1.9317,1.9319,1.9325,1.933,1.9358,1.9381,1.9353,1.9354,1.936,1.9406,1.9418,1.9422,1.9466,1.9441,1.9444,1.9445,1.9446,1.9533,1.9533,0,0,0,0,0,0,1.9257,1.9266,1.9324,1.9327,1.9291,1.9327,1.9333,1.9345,1.938,1.9385,1.936,1.936,1.9413,1.9419,1.9424,1.9458,1.9444,1.9447,1.9448,1.9532,1.9533,1.9533,0,0,0,0,0,0,1.9255,1.9262,1.9322,1.9297,1.9305,1.9328,1.9343,1.9346,1.9358,1.9386,1.939,1.9367,1.9413,1.942,1.945,1.946,1.9448,1.945,1.9531,1.9532,1.9533,1.9525,0,0,0,0,0,0,1.9253,1.9261,1.927,1.9297,1.9306,1.9345,1.9343,1.9348,1.9362,1.9362,1.9394,1.9398,1.9413,1.9446,1.9453,1.9464,1.9453,1.9531,1.9532,1.9533,1.9525,1.9526,1.9527,0,0,0,0,0,1.925,1.9267,1.927,1.9277,1.9317,1.9345,1.9351,1.9365,1.9363,1.9373,1.9391,1.9397,1.9458,1.9449,1.9457,1.9468,1.953,1.9531,1.9533,1.9524,1.9525,1.9527,0,0,0,0,0,0,1.9243,1.9271,1.9275,1.9301,1.932,1.9347,1.936,1.9366,1.9389,1.9389,1.9408,1.9415,1.9444,1.946,1.9449,1.9497,1.9494,1.9497,1.9485,1.9487,1.9487,1.9483,1.9455,0,0,0,0,0,1.9244,1.9262,1.9287,1.9307,1.9317,1.9337,1.935,1.9359,1.9381,1.939,1.941,1.9433,1.9458,1.9473,1.9497,1.9528,1.9535,1.954,1.9541,1.9541,1.9544,1.9561,1.9564,1.9538,1.9538,1.9538,0,0,1.9247,1.9265,1.9275,1.9306,1.9322,1.9343,1.9344,1.9365,1.9381,1.9394,1.9422,1.9438,1.9466,1.9496,1.951,1.951,1.9553,1.9543,1.9543,1.9545,1.9563,1.9565,1.9567,1.9539,1.9539,1.9539,0,0,1.9262,1.9277,1.9296,1.9312,1.9335,1.9349,1.9353,1.938,1.939,1.9419,1.9429,1.945,1.9491,1.9509,1.9525,1.9548,1.9555,1.9556,1.956,1.9577,1.9579,1.9581,1.9589,1.9592,1.9558,1.9558,1.9558,0,1.9264,1.9292,1.9305,1.9325,1.9339,1.935,1.937,1.9386,1.9418,1.9428,1.9427,1.9478,1.9498,1.9532,1.9538,1.955,1.9557,1.9551,1.9577,1.9579,1.9581,1.9589,1.9592,1.9558,1.9558,1.9558,1.9558,0,1.9292,1.9312,1.9325,1.9352,1.9368,1.9388,1.9406,1.9421,1.943,1.9444,1.9474,1.9497,1.9526,1.9535,1.9545,1.9571,1.957,1.9573,1.9571,1.9583,1.9591,1.9594,1.9557,1.9557,1.9557,1.9558,0,0,1.9304,1.9338,1.9342,1.9354,1.9382,1.9399,1.9421,1.9446,1.9458,1.9481,1.95,1.9535,1.9537,1.9554,1.9566,1.9581,1.9598,1.9582,1.9583,1.9584,1.9629,1.9626,1.9629,1.9603,1.9604,1.9605,1.9627,0,1.9322,1.9358,1.9371,1.9401,1.942,1.9431,1.9451,1.9471,1.9485,1.9505,1.9522,1.9546,1.9548,1.9558,1.9573,1.9592,1.9607,1.9591,1.9623,1.9624,1.9614,1.9634,1.9631,1.965,1.963,1.9631,1.9631,0,1.9347,1.9367,1.9398,1.9423,1.9432,1.9448,1.9473,1.9492,1.9516,1.9525,1.9544,1.9555,1.9581,1.9577,1.9613,1.9602,1.9616,1.9628,1.9629,1.9632,1.9627,1.9637,1.9657,1.966,1.9636,1.9636,1.9635,0,1.9351,1.9386,1.9409,1.942,1.945,1.9461,1.9475,1.9498,1.9513,1.9536,1.9546,1.9572,1.9587,1.9608,1.9627,1.9623,1.9661,1.966,1.9671,1.9671,1.9678,1.9677,1.97,1.9688,1.9688,1.9688,1.9688,0,1.937,1.9389,1.9411,1.9426,1.9448,1.9464,1.9486,1.9501,1.9522,1.9541,1.9554,1.9572,1.9595,1.9617,1.9633,1.966,1.9667,1.9677,1.968,1.9675,1.9673,1.9684,1.9683,1.9689,1.9689,1.9689,1.9689,0,1.9378,1.9393,1.9419,1.9445,1.9452,1.9467,1.9491,1.9506,1.9521,1.9545,1.9552,1.9576,1.9603,1.9623,1.9659,1.9669,1.9698,1.9703,1.9689,1.9691,1.9701,1.9699,1.9731,1.9736,1.9721,1.9721,1.9721,0,1.9388,1.9402,1.9429,1.9441,1.9454,1.9474,1.9489,1.9506,1.9521,1.955,1.9562,1.9589,1.9611,1.9653,1.9675,1.9703,1.9708,1.9717,1.9712,1.9706,1.9707,1.9706,1.9708,1.9717,1.9717,1.9717,1.9717,0,1.9404,1.9411,1.943,1.9452,1.9468,1.9487,1.9507,1.9517,1.9539,1.9555,1.9581,1.9598,1.9633,1.966,1.9689,1.9706,1.9716,1.9719,1.9723,1.9717,1.9708,1.9712,1.969,1.9718,1.9718,1.9718,1.9718,1.9718,1.9413,1.9426,1.9447,1.9468,1.9484,1.9502,1.9517,1.9533,1.9554,1.9582,1.9592,1.9619,1.9644,1.9684,1.9701,1.9724,1.9725,1.9731,1.9732,1.9733,1.9732,1.9705,1.973,1.973,1.973,1.973,1.973,0,1.9429,1.9443,1.9462,1.9487,1.9505,1.951,1.9532,1.9547,1.9569,1.9591,1.9612,1.9642,1.9668,1.9692,1.972,1.9734,1.9739,1.9741,1.974,1.9743,1.973,1.9723,1.9736,1.9736,1.9736,1.9736,1.9736,1.9736,1.9439,1.9462,1.9471,1.9503,1.9517,1.9541,1.9553,1.9571,1.9588,1.962,1.9641,1.9656,1.9679,1.9709,1.9734,1.974,1.975,1.975,1.9758,1.9745,1.9744,1.9743,1.9737,1.9752,1.9752,1.977,1.977,1.977]},{"header":{"parameterUnit":"m.s-1","parameterCategory":1,"la1":30.2991,"la2":30.254,"lo1":-89.0895,"lo2":-89.0444,"dy":0.0017,"dx":0.0017,"nx":28,"ny":28,"refTime":"2024-08-13T03:00:00:Z","depth":0,"parameterNumber":3,"parameterNumberName":"V-component_of_WINDS"},"data":[0,0,0,0,0,0,0,0,0,0,0,0,0,0,0,0,0,0,0,0,0,0,0,0,0,0,0,0,0,0,0,0,0,0,0,0,0,0,0,0,0,0,0,0,0,0,0,0,0,0,0,0,0,0,0,0,0,0,2.9769,2.9769,0,2.9772,2.9772,2.9772,2.9763,2.9763,2.9762,2.9762,2.9764,2.9765,2.9765,0,0,0,0,0,0,0,0,0,0,0,0,0,2.9756,2.9756,2.9769,2.9769,2.9769,2.9772,2.9772,2.9772,2.9763,2.9763,2.9762,2.9762,2.9764,2.9765,2.9765,0,0,0,0,0,0,0,0,0,0,0,0,0,2.976,2.9756,2.9769,2.9765,2.9765,2.9772,2.9772,2.9772,2.9763,2.9763,2.9762,2.9762,2.9764,2.9765,2.9765,2.9776,0,0,2.9767,2.9767,0,0,0,0,0,0,0,0,2.976,2.9761,2.9766,2.9765,2.9765,2.9767,2.9768,2.9773,2.9763,2.9764,2.9762,2.9762,2.9765,2.9766,2.9767,2.9776,2.9776,2.9767,2.9767,2.9767,2.9767,0,0,0,0,0,0,0,2.976,2.9761,2.977,2.9766,2.9765,2.9763,2.9763,2.9769,2.9767,2.9764,2.9763,2.9763,2.9765,2.9767,2.9767,2.9776,2.9767,2.9767,2.9767,2.9767,2.9795,2.9795,0,0,0,0,0,0,2.976,2.976,2.977,2.977,2.9762,2.9764,2.9764,2.9767,2.9767,2.9766,2.9764,2.9763,2.9766,2.9767,2.9767,2.978,2.9767,2.9768,2.9768,2.9794,2.9795,2.9795,0,0,0,0,0,0,2.976,2.9761,2.977,2.9765,2.9766,2.9764,2.9767,2.9767,2.9768,2.9767,2.9766,2.9766,2.9766,2.9767,2.9774,2.978,2.9768,2.9768,2.9794,2.9794,2.9795,2.9805,0,0,0,0,0,0,2.9759,2.9761,2.9765,2.9765,2.9767,2.9777,2.9768,2.9767,2.9769,2.9768,2.9769,2.9768,2.9766,2.9773,2.9775,2.978,2.9769,2.9793,2.9794,2.9795,2.9804,2.9806,2.9808,0,0,0,0,0,2.9759,2.9768,2.9765,2.9767,2.9772,2.9777,2.9778,2.9775,2.977,2.9774,2.9773,2.9768,2.9779,2.9774,2.9775,2.9781,2.9793,2.9794,2.9795,2.9804,2.9806,2.9808,0,0,0,0,0,0,2.9768,2.9768,2.9765,2.9774,2.9776,2.9776,2.9781,2.9777,2.978,2.9779,2.9775,2.9775,2.9783,2.9783,2.9778,2.9792,2.9785,2.9786,2.9792,2.9794,2.9795,2.9795,2.9769,0,0,0,0,0,2.9771,2.9776,2.9776,2.9784,2.9785,2.9783,2.9785,2.9783,2.9784,2.9784,2.9784,2.9785,2.9789,2.9792,2.9795,2.9805,2.9804,2.981,2.9811,2.9813,2.9813,2.9818,2.982,2.9798,2.9798,2.9798,0,0,2.9778,2.9778,2.9781,2.9786,2.9787,2.9791,2.9783,2.9789,2.9792,2.9785,2.9792,2.9792,2.9793,2.9802,2.9806,2.9802,2.982,2.9814,2.9815,2.9815,2.9819,2.9821,2.9823,2.9799,2.9799,2.9799,0,0,2.9792,2.9793,2.98,2.9801,2.9802,2.9801,2.9803,2.9803,2.9803,2.981,2.9805,2.9809,2.9815,2.9816,2.9818,2.9833,2.9828,2.9834,2.9842,2.9847,2.9849,2.985,2.9855,2.9857,2.9835,2.9835,2.9835,0,2.9799,2.9806,2.9803,2.9809,2.9811,2.9806,2.9812,2.9814,2.9816,2.9817,2.9814,2.9822,2.9822,2.9831,2.9834,2.9836,2.9837,2.9833,2.9849,2.985,2.9851,2.9856,2.9858,2.9836,2.9836,2.9835,2.9835,0,2.9815,2.982,2.9825,2.9828,2.9831,2.9837,2.9835,2.9838,2.9836,2.9835,2.9842,2.9842,2.9846,2.9848,2.9845,2.9856,2.9854,2.9849,2.9842,2.9854,2.9858,2.986,2.9836,2.9836,2.9836,2.9836,0,0,2.9834,2.9835,2.9837,2.9838,2.984,2.9844,2.985,2.9853,2.9855,2.9858,2.9862,2.9868,2.9864,2.9866,2.9864,2.9868,2.9879,2.9863,2.9863,2.9865,2.989,2.9893,2.9895,2.9877,2.9877,2.9877,2.989,0,2.9847,2.9857,2.9855,2.9865,2.9869,2.9864,2.987,2.9871,2.9871,2.9874,2.9874,2.9878,2.9873,2.9873,2.9878,2.9877,2.9884,2.9876,2.988,2.988,2.9879,2.9897,2.9899,2.9911,2.9891,2.9892,2.9892,0,2.9863,2.9866,2.9876,2.9877,2.9879,2.9884,2.9886,2.989,2.9892,2.9891,2.9893,2.989,2.9896,2.989,2.9897,2.9892,2.9894,2.9894,2.9894,2.9894,2.9886,2.9896,2.9915,2.9916,2.9894,2.9894,2.9894,0,2.9874,2.9881,2.9888,2.9889,2.9891,2.9894,2.9895,2.9896,2.9898,2.9901,2.9902,2.9906,2.9907,2.991,2.9908,2.9904,2.9916,2.9909,2.9915,2.9915,2.9917,2.9916,2.9935,2.9919,2.9919,2.9919,2.9919,0,2.9888,2.9895,2.9893,2.9897,2.9904,2.9902,2.9909,2.9909,2.9911,2.9915,2.9911,2.9915,2.9912,2.9916,2.9915,2.9921,2.9922,2.9921,2.992,2.9921,2.9921,2.9921,2.992,2.992,2.992,2.992,2.992,0,2.9902,2.9901,2.9908,2.991,2.991,2.9915,2.9916,2.992,2.9919,2.9924,2.9925,2.9925,2.9929,2.9927,2.9932,2.9931,2.9938,2.9937,2.9938,2.9937,2.9942,2.9942,2.9961,2.9964,2.9947,2.9947,2.9947,0,2.991,2.9915,2.9917,2.9919,2.9921,2.9925,2.9927,2.9925,2.9928,2.993,2.9934,2.9938,2.994,2.9947,2.9947,2.995,2.9948,2.9955,2.9949,2.9949,2.9947,2.9947,2.9947,2.9956,2.9956,2.9956,2.9956,0,2.9925,2.9925,2.9928,2.9932,2.9935,2.9938,2.994,2.9942,2.9941,2.9944,2.9948,2.995,2.9955,2.9958,2.9961,2.9962,2.9959,2.9959,2.996,2.996,2.996,2.9959,2.994,2.9958,2.9958,2.9958,2.9958,2.9958,2.9936,2.994,2.9942,2.9946,2.9948,2.995,2.9953,2.9954,2.9957,2.9961,2.996,2.9965,2.9966,2.997,2.9971,2.9975,2.9972,2.9974,2.9974,2.9975,2.9975,2.996,2.9975,2.9975,2.9975,2.9975,2.9975,0,2.995,2.9951,2.9955,2.9958,2.9962,2.9959,2.9962,2.9964,2.9969,2.9971,2.9974,2.9978,2.9982,2.9982,2.9986,2.9989,2.9987,2.9989,2.9989,2.9989,2.9978,2.9976,2.999,2.999,2.999,2.999,2.999,2.999,2.9958,2.9964,2.9964,2.9971,2.9972,2.9977,2.9978,2.998,2.9982,2.9988,2.9991,2.9991,2.9992,2.9996,2.9999,2.9999,3.0,3.0003,3.0002,2.9991,2.999,2.9988,2.9986,3.0003,3.0003,3.0013,3.0013,3.0013]}]]